Showing default

COSMOS 2093, 20738

Orbit data source: Space-Track

COSMOS 2093, 20738 is a payload satellite owned by UNKS (CIS) in LEO that was launched on Wed, 08 Aug 1990 UTC via a TSIKLON-3 launch vehicle from the Plesetsk Missile And Space Complex (PKMTR). Payload-class satellites include a variety of spacecraft equipped with specific instruments for various scientific and technological missions. These include communications satellites like Starlink; space stations such as the ISS; scientific satellites like the Hubble; Earth observation satellites from companies like Planet Labs, Umbra, and HawkEye 360; GPS; miniature CubeSats for education and research; and military/defense satellites.

Loading next visibility...
Identifier
20738, 1990-070D
Orbit
LEO
Country
Flag of CISCIS
Related business
Manufacturer
NPO PM
Mission
Defense Communications
Bus & Motor
STRELA-3, Unknown motor
Mass
225 kg wet, 225 kg dry
Launch date (UTC)
1990-08-08 (35 years ago)
Launch vehicle
TSIKLON-3
Launch site
Plesetsk Missile And Space Complex (PKMTR)
Object type
Payload
Rocket body
Debris
Shape & HBR
Cyl, 0.8 m
Radar Cross Section
1.257 m², Large (>1 m²)

Expand to show TLE details & history
Last TLE update: 1 day ago

TLE from 1 day ago
0 COSMOS 2093
1 20738U 90070D   25305.44856378  .00000047  00000-0  19629-3 0  9997
2 20738  82.5721  86.7726 0007923 263.5798 151.5827 12.64087670625603
Epoch: 2025-11-01T10:45Z
TLE epoch observation values (Epoch: 2025-11-01T10:45:55.910Z)
Latitude
54.61146°
Longitude
-105.16622°
Altitude
1,420.497 km
Speed
7.153 km/s
True Right ascension
06h 29m 10s
True Declination
54° 27' 46"
Sunlit
Object was in daylight at epoch
Visualization orbit readout
Latitude
Unknown
Longitude
Unknown
Altitude
Unknown
Speed
Unknown
Apparent Right ascension
Unknown
Apparent Declination
Unknown
Sunlit
N/A
Visualization observer readout
Local Sidereal Time
09:05:29
Azimuth
Unknown
Elevation
Unknown
Doppler factor
Unknown
Orbital elements
Apogee altitude
1,409.602 km
Perigee altitude
1,397.271 km
Semi-major axis
7,781.573 km
Eccentricity
0.00079
Inclination
82.5721°
RAAN
86.7726°
Arg. of periapsis
263.5798°
True anomaly
151.62587°
Mean anomaly
151.5827°
Eccentric anomaly
151.60429°
Mean motion
3.16186 °/min
Orbital period
113.86 mins
BSTAR
0.00019629
Loading maneuver chart data...
Computing Atmospheric mass density...
Loading historical data...
Loading historical data...
Loading historical data...
Loading historical data...
Loading historical data...
Loading historical data...
Loading historical data...

Documentation

Showing up to 5 results
|